Year,Month,Day,Hour,Minute,Value (Times are PST for temperature in C)
2021,01,24,00,01,0.60
2021,01,24,00,02,0.60
2021,01,24,00,03,0.60
2021,01,24,00,04,0.60
2021,01,24,00,05,0.60
2021,01,24,00,07,0.60
2021,01,24,00,08,0.60
2021,01,24,00,09,0.60
2021,01,24,00,10,0.60
2021,01,24,00,11,0.60
2021,01,24,00,12,0.60
2021,01,24,00,13,0.60
2021,01,24,00,14,0.60
2021,01,24,00,15,0.60
2021,01,24,00,17,0.50
2021,01,24,00,18,0.50
2021,01,24,00,19,0.50
2021,01,24,00,20,0.50
2021,01,24,00,21,0.50
2021,01,24,00,22,0.50
2021,01,24,00,24,0.50
2021,01,24,00,25,0.50
2021,01,24,00,26,0.50
2021,01,24,00,27,0.50
2021,01,24,00,28,0.50
2021,01,24,00,29,0.50
2021,01,24,00,31,0.50
2021,01,24,00,32,0.50
2021,01,24,00,33,0.50
2021,01,24,00,34,0.50
2021,01,24,00,35,0.50
2021,01,24,00,36,0.50
2021,01,24,00,37,0.50
2021,01,24,00,38,0.50
2021,01,24,00,39,0.50
2021,01,24,00,40,0.50
2021,01,24,00,41,0.50
2021,01,24,00,42,0.50
2021,01,24,00,45,0.50
2021,01,24,00,47,0.50
2021,01,24,00,48,0.50
2021,01,24,00,51,0.50
2021,01,24,00,52,0.40
2021,01,24,00,53,0.40
2021,01,24,00,54,0.40
2021,01,24,00,55,0.40
2021,01,24,00,56,0.40
2021,01,24,00,57,0.40
2021,01,24,00,58,0.40
2021,01,24,00,59,0.40
2021,01,24,01,00,0.40
2021,01,24,01,01,0.40
2021,01,24,01,02,0.40
2021,01,24,01,03,0.40
2021,01,24,01,04,0.40
2021,01,24,01,05,0.40
2021,01,24,01,06,0.40
2021,01,24,01,07,0.40
2021,01,24,01,08,0.40
2021,01,24,01,09,0.40
2021,01,24,01,10,0.40
2021,01,24,01,11,0.40
2021,01,24,01,12,0.40
2021,01,24,01,13,0.40
2021,01,24,01,14,0.40
2021,01,24,01,15,0.40
2021,01,24,01,16,0.40
2021,01,24,01,17,0.40
2021,01,24,01,18,0.40
2021,01,24,01,19,0.40
2021,01,24,01,20,0.40
2021,01,24,01,21,0.40
2021,01,24,01,22,0.40
2021,01,24,01,23,0.40
2021,01,24,01,24,0.40
2021,01,24,01,25,0.40
2021,01,24,01,26,0.40
2021,01,24,01,27,0.40
2021,01,24,01,28,0.40
2021,01,24,01,29,0.40
2021,01,24,01,30,0.40
2021,01,24,01,31,0.40
2021,01,24,01,32,0.40
2021,01,24,01,33,0.40
2021,01,24,01,34,0.40
2021,01,24,01,35,0.40
2021,01,24,01,36,0.40
2021,01,24,01,37,0.40
2021,01,24,01,38,0.40
2021,01,24,01,39,0.40
2021,01,24,01,40,0.40
2021,01,24,01,41,0.40
2021,01,24,01,42,0.40
2021,01,24,01,43,0.40
2021,01,24,01,44,0.40
2021,01,24,01,45,0.40
2021,01,24,01,46,0.40
2021,01,24,01,47,0.40
2021,01,24,01,48,0.40
2021,01,24,01,49,0.40
2021,01,24,01,50,0.40
2021,01,24,01,51,0.40
2021,01,24,01,52,0.40
2021,01,24,01,53,0.40
2021,01,24,01,54,0.40
2021,01,24,01,55,0.40
2021,01,24,01,56,0.40
2021,01,24,01,57,0.40
2021,01,24,01,58,0.40
2021,01,24,01,59,0.40
2021,01,24,02,00,0.40
2021,01,24,02,01,0.40
2021,01,24,02,02,0.50
2021,01,24,02,03,0.50
2021,01,24,02,04,0.40
2021,01,24,02,05,0.50
2021,01,24,02,06,0.50
2021,01,24,02,07,0.50
2021,01,24,02,08,0.40
2021,01,24,02,09,0.50
2021,01,24,02,10,0.50
2021,01,24,02,11,0.50
2021,01,24,02,12,0.50
2021,01,24,02,13,0.50
2021,01,24,02,14,0.50
2021,01,24,02,15,0.50
2021,01,24,02,16,0.50
2021,01,24,02,17,0.50
2021,01,24,02,18,0.50
2021,01,24,02,19,0.50
2021,01,24,02,20,0.50
2021,01,24,02,21,0.50
2021,01,24,02,22,0.50
2021,01,24,02,23,0.50
2021,01,24,02,24,0.50
2021,01,24,02,25,0.50
2021,01,24,02,26,0.50
2021,01,24,02,27,0.50
2021,01,24,02,28,0.50
2021,01,24,02,29,0.50
2021,01,24,02,30,0.50
2021,01,24,02,31,0.50
2021,01,24,02,32,0.50
2021,01,24,02,33,0.50
2021,01,24,02,34,0.50
2021,01,24,02,35,0.50
2021,01,24,02,36,0.50
2021,01,24,02,37,0.50
2021,01,24,02,38,0.50
2021,01,24,02,39,0.50
2021,01,24,02,40,0.50
2021,01,24,02,41,0.50
2021,01,24,02,42,0.50
2021,01,24,02,43,0.50
2021,01,24,02,44,0.50
2021,01,24,02,45,0.50
2021,01,24,02,46,0.50
2021,01,24,02,47,0.50
2021,01,24,02,48,0.50
2021,01,24,02,49,0.50
2021,01,24,02,50,0.50
2021,01,24,02,51,0.50
2021,01,24,02,52,0.50
2021,01,24,02,53,0.50
2021,01,24,02,54,0.50
2021,01,24,02,55,0.50
2021,01,24,02,56,0.50
2021,01,24,02,57,0.50
2021,01,24,02,58,0.50
2021,01,24,02,59,0.50
2021,01,24,03,00,0.50
2021,01,24,03,01,0.50
2021,01,24,03,02,0.50
2021,01,24,03,03,0.50
2021,01,24,03,04,0.50
2021,01,24,03,05,0.50
2021,01,24,03,06,0.50
2021,01,24,03,07,0.50
2021,01,24,03,08,0.50
2021,01,24,03,09,0.40
2021,01,24,03,10,0.40
2021,01,24,03,11,0.40
2021,01,24,03,12,0.40
2021,01,24,03,13,0.40
2021,01,24,03,14,0.40
2021,01,24,03,15,0.40
2021,01,24,03,16,0.40
2021,01,24,03,17,0.40
2021,01,24,03,18,0.40
2021,01,24,03,19,0.40
2021,01,24,03,20,0.40
2021,01,24,03,21,0.40
2021,01,24,03,22,0.40
2021,01,24,03,23,0.40
2021,01,24,03,24,0.40
2021,01,24,03,25,0.40
2021,01,24,03,26,0.40
2021,01,24,03,27,0.40
2021,01,24,03,28,0.40
2021,01,24,03,29,0.40
2021,01,24,03,30,0.40
2021,01,24,03,31,0.40
2021,01,24,03,32,0.40
2021,01,24,03,33,0.40
2021,01,24,03,34,0.40
2021,01,24,03,35,0.40
2021,01,24,03,36,0.40
2021,01,24,03,37,0.40
2021,01,24,03,38,0.40
2021,01,24,03,39,0.40
2021,01,24,03,40,0.40
2021,01,24,03,41,0.40
2021,01,24,03,42,0.40
2021,01,24,03,43,0.40
2021,01,24,03,44,0.40
2021,01,24,03,45,0.40
2021,01,24,03,46,0.40
2021,01,24,03,47,0.40
2021,01,24,03,48,0.40
2021,01,24,03,49,0.40
2021,01,24,03,50,0.40
2021,01,24,03,51,0.40
2021,01,24,03,52,0.40
2021,01,24,03,53,0.40
2021,01,24,03,54,0.40
2021,01,24,03,55,0.40
2021,01,24,03,56,0.40
2021,01,24,03,57,0.40
2021,01,24,03,58,0.40
2021,01,24,03,59,0.40
2021,01,24,04,00,0.40
2021,01,24,04,01,0.40
2021,01,24,04,02,0.40
2021,01,24,04,03,0.40
2021,01,24,04,04,0.40
2021,01,24,04,05,0.40
2021,01,24,04,06,0.40
2021,01,24,04,07,0.40
2021,01,24,04,08,0.40
2021,01,24,04,09,0.40
2021,01,24,04,10,0.40
2021,01,24,04,11,0.40
2021,01,24,04,12,0.40
2021,01,24,04,13,0.40
2021,01,24,04,14,0.40
2021,01,24,04,15,0.40
2021,01,24,04,16,0.40
2021,01,24,04,17,0.40
2021,01,24,04,18,0.40
2021,01,24,04,19,0.40
2021,01,24,04,20,0.40
2021,01,24,04,21,0.40
2021,01,24,04,22,0.40
2021,01,24,04,23,0.40
2021,01,24,04,24,0.40
2021,01,24,04,25,0.40
2021,01,24,04,26,0.40
2021,01,24,04,27,0.40
2021,01,24,04,28,0.40
2021,01,24,04,29,0.40
2021,01,24,04,30,0.40
2021,01,24,04,31,0.40
2021,01,24,04,32,0.40
2021,01,24,04,33,0.40
2021,01,24,04,34,0.40
2021,01,24,04,35,0.40
2021,01,24,04,36,0.40
2021,01,24,04,37,0.40
2021,01,24,04,38,0.40
2021,01,24,04,39,0.40
2021,01,24,04,40,0.40
2021,01,24,04,41,0.40
2021,01,24,04,42,0.40
2021,01,24,04,43,0.40
2021,01,24,04,44,0.40
2021,01,24,04,45,0.40
2021,01,24,04,46,0.40
2021,01,24,04,47,0.40
2021,01,24,04,48,0.40
2021,01,24,04,49,0.40
2021,01,24,04,50,0.40
2021,01,24,04,51,0.40
2021,01,24,04,52,0.40
2021,01,24,04,53,0.40
2021,01,24,04,54,0.40
2021,01,24,04,55,0.40
2021,01,24,04,56,0.40
2021,01,24,04,57,0.40
2021,01,24,04,58,0.40
2021,01,24,04,59,0.40
2021,01,24,05,00,0.40
2021,01,24,05,01,0.40
2021,01,24,05,02,0.30
2021,01,24,05,03,0.30
2021,01,24,05,04,0.30
2021,01,24,05,05,0.30
2021,01,24,05,06,0.30
2021,01,24,05,07,0.30
2021,01,24,05,08,0.30
2021,01,24,05,09,0.30
2021,01,24,05,10,0.30
2021,01,24,05,11,0.30
2021,01,24,05,12,0.40
2021,01,24,05,13,0.30
2021,01,24,05,14,0.40
2021,01,24,05,15,0.40
2021,01,24,05,16,0.40
2021,01,24,05,17,0.40
2021,01,24,05,18,0.40
2021,01,24,05,19,0.40
2021,01,24,05,20,0.40
2021,01,24,05,21,0.40
2021,01,24,05,22,0.40
2021,01,24,05,23,0.40
2021,01,24,05,24,0.40
2021,01,24,05,25,0.40
2021,01,24,05,26,0.40
2021,01,24,05,27,0.40
2021,01,24,05,28,0.40
2021,01,24,05,29,0.40
2021,01,24,05,30,0.40
2021,01,24,05,31,0.40
2021,01,24,05,32,0.40
2021,01,24,05,33,0.40
2021,01,24,05,34,0.30
2021,01,24,05,35,0.30
2021,01,24,05,36,0.30
2021,01,24,05,37,0.30
2021,01,24,05,38,0.30
2021,01,24,05,39,0.30
2021,01,24,05,40,0.30
2021,01,24,05,41,0.30
2021,01,24,05,42,0.30
2021,01,24,05,43,0.30
2021,01,24,05,44,0.40
2021,01,24,05,45,0.30
2021,01,24,05,46,0.30
2021,01,24,05,47,0.40
2021,01,24,05,48,0.40
2021,01,24,05,49,0.40
2021,01,24,05,50,0.40
2021,01,24,05,51,0.40
2021,01,24,05,52,0.40
2021,01,24,05,53,0.40
2021,01,24,05,54,0.40
2021,01,24,05,55,0.40
2021,01,24,05,56,0.40
2021,01,24,05,57,0.40
2021,01,24,05,58,0.40
2021,01,24,05,59,0.40
2021,01,24,06,00,0.40
2021,01,24,06,01,0.30
2021,01,24,06,02,0.30
2021,01,24,06,03,0.30
2021,01,24,06,04,0.30
2021,01,24,06,05,0.30
2021,01,24,06,06,0.30
2021,01,24,06,07,0.30
2021,01,24,06,08,0.30
2021,01,24,06,09,0.30
2021,01,24,06,10,0.30
2021,01,24,06,11,0.30
2021,01,24,09,17,0.70
2021,01,24,09,18,0.70
2021,01,24,09,19,0.70
2021,01,24,09,20,0.70
2021,01,24,09,21,0.70
2021,01,24,09,22,0.70
2021,01,24,09,23,0.70
2021,01,24,09,24,0.70
2021,01,24,09,25,0.70
2021,01,24,09,26,0.70
2021,01,24,09,27,0.70
2021,01,24,09,28,0.70
2021,01,24,09,29,0.70
2021,01,24,09,31,0.70
2021,01,24,09,32,0.70
2021,01,24,09,33,0.70
2021,01,24,09,35,0.70
2021,01,24,09,36,0.60
2021,01,24,09,37,0.60
2021,01,24,09,38,0.60
2021,01,24,09,39,0.60
2021,01,24,09,40,0.60
2021,01,24,09,41,0.60
2021,01,24,09,42,0.60
2021,01,24,09,43,0.60
2021,01,24,09,44,0.60
2021,01,24,09,45,0.60
2021,01,24,09,46,0.60
2021,01,24,09,47,0.60
2021,01,24,09,48,0.60
2021,01,24,09,50,0.60
2021,01,24,09,51,0.60
2021,01,24,09,52,0.70
2021,01,24,09,53,0.60
2021,01,24,09,54,0.60
2021,01,24,09,55,0.60
2021,01,24,09,56,0.60
2021,01,24,09,57,0.70
2021,01,24,09,58,0.60
2021,01,24,09,59,0.60
2021,01,24,10,00,0.60
2021,01,24,10,01,0.70
2021,01,24,10,02,0.70
2021,01,24,10,03,0.70
2021,01,24,10,04,0.70
2021,01,24,10,05,0.70
2021,01,24,10,06,0.70
2021,01,24,10,07,0.70
2021,01,24,10,08,0.70
2021,01,24,10,09,0.70
2021,01,24,10,10,0.70
2021,01,24,10,11,0.70
2021,01,24,10,12,0.70
2021,01,24,10,13,0.70
2021,01,24,10,14,0.70
2021,01,24,10,15,0.70
2021,01,24,10,16,0.70
2021,01,24,10,17,0.70
2021,01,24,10,18,0.70
2021,01,24,10,19,0.70
2021,01,24,10,20,0.70
2021,01,24,10,21,0.70
2021,01,24,10,22,0.70
2021,01,24,10,23,0.70
2021,01,24,10,24,0.70
2021,01,24,10,26,0.70
2021,01,24,10,27,0.80
2021,01,24,10,28,0.80
2021,01,24,10,29,0.80
2021,01,24,10,31,0.80
2021,01,24,10,32,0.80
2021,01,24,10,33,0.80
2021,01,24,10,34,0.80
2021,01,24,10,35,0.80
2021,01,24,10,36,0.80
2021,01,24,10,37,0.80
2021,01,24,10,38,0.80
2021,01,24,10,40,0.80
2021,01,24,10,41,0.80
2021,01,24,10,42,0.80
2021,01,24,10,43,0.80
2021,01,24,10,44,0.80
2021,01,24,10,45,0.80
2021,01,24,10,46,0.80
2021,01,24,10,47,0.80
2021,01,24,10,48,0.80
2021,01,24,10,49,0.80
2021,01,24,10,50,0.80
2021,01,24,10,51,0.90
2021,01,24,10,52,0.90
2021,01,24,10,53,0.90
2021,01,24,10,54,0.90
2021,01,24,10,55,0.90
2021,01,24,10,56,0.90
2021,01,24,10,57,0.90
2021,01,24,10,58,0.90
2021,01,24,10,59,0.80
2021,01,24,11,00,0.80
2021,01,24,11,01,0.90
2021,01,24,11,02,0.90
2021,01,24,11,03,0.80
2021,01,24,11,04,0.90
2021,01,24,11,05,0.90
2021,01,24,11,06,0.90
2021,01,24,11,07,0.90
2021,01,24,11,08,0.80
2021,01,24,11,09,0.90
2021,01,24,11,10,0.90
2021,01,24,11,11,0.90
2021,01,24,11,12,0.90
2021,01,24,11,13,0.90
2021,01,24,11,14,0.90
2021,01,24,11,15,0.90
2021,01,24,11,16,0.90
2021,01,24,11,18,0.90
2021,01,24,11,19,0.90
2021,01,24,11,20,0.90
2021,01,24,11,21,0.90
2021,01,24,11,22,0.90
2021,01,24,11,23,0.90
2021,01,24,11,24,0.90
2021,01,24,11,25,0.90
2021,01,24,11,26,0.90
2021,01,24,11,27,0.90
2021,01,24,11,28,0.90
2021,01,24,11,29,0.90
2021,01,24,11,30,0.90
2021,01,24,11,31,0.90
2021,01,24,11,32,0.90
2021,01,24,11,35,0.90
2021,01,24,11,37,0.90
2021,01,24,11,38,0.90
2021,01,24,11,39,0.90
2021,01,24,11,40,0.90
2021,01,24,11,42,0.90
2021,01,24,11,43,0.90
2021,01,24,11,45,0.90
2021,01,24,11,46,0.90
2021,01,24,11,47,0.90
2021,01,24,11,48,0.90
2021,01,24,11,49,0.90
2021,01,24,11,50,0.90
2021,01,24,11,51,0.90
2021,01,24,11,52,0.90
2021,01,24,11,53,0.90
2021,01,24,11,54,0.90
2021,01,24,11,55,0.90
2021,01,24,11,56,1.00
2021,01,24,11,57,1.00
2021,01,24,12,00,1.10
2021,01,24,12,01,1.10
2021,01,24,12,02,1.10
2021,01,24,12,03,1.10
2021,01,24,12,04,1.10
2021,01,24,12,06,1.10
2021,01,24,12,07,1.20
2021,01,24,12,08,1.20
2021,01,24,12,09,1.20
2021,01,24,12,10,1.20
2021,01,24,12,11,1.20
2021,01,24,12,12,1.20
2021,01,24,12,13,1.20
2021,01,24,12,14,1.20
2021,01,24,12,15,1.20
2021,01,24,12,16,1.20
2021,01,24,12,17,1.20
2021,01,24,12,18,1.20
2021,01,24,12,19,1.20
2021,01,24,12,20,1.20
2021,01,24,12,21,1.20
2021,01,24,12,22,1.20
2021,01,24,12,23,1.20
2021,01,24,12,24,1.20
2021,01,24,12,25,1.20
2021,01,24,12,26,1.20
2021,01,24,12,27,1.20
2021,01,24,12,28,1.20
2021,01,24,12,30,1.20
2021,01,24,12,31,1.20
2021,01,24,12,32,1.20
2021,01,24,12,33,1.20
2021,01,24,12,34,1.20
2021,01,24,12,35,1.20
2021,01,24,12,36,1.20
2021,01,24,12,37,1.20
2021,01,24,12,39,1.20
2021,01,24,12,40,1.20
2021,01,24,12,41,1.30
2021,01,24,12,42,1.30
2021,01,24,12,43,1.30
2021,01,24,12,44,1.30
2021,01,24,12,45,1.30
2021,01,24,12,46,1.30
2021,01,24,12,47,1.30
2021,01,24,12,48,1.30
2021,01,24,12,49,1.30
2021,01,24,12,50,1.30
2021,01,24,12,51,1.30
2021,01,24,12,52,1.30
2021,01,24,12,53,1.30
2021,01,24,12,54,1.40
2021,01,24,12,56,1.40
2021,01,24,12,57,1.30
2021,01,24,12,58,1.40
2021,01,24,12,59,1.40
2021,01,24,13,00,1.40
2021,01,24,13,01,1.40
2021,01,24,13,02,1.40
2021,01,24,13,03,1.40
2021,01,24,13,04,1.40
2021,01,24,13,05,1.40
2021,01,24,13,06,1.40
2021,01,24,13,07,1.50
2021,01,24,13,09,1.50
2021,01,24,13,10,1.50
2021,01,24,13,11,1.50
2021,01,24,13,12,1.50
2021,01,24,13,13,1.50
2021,01,24,13,14,1.50
2021,01,24,13,15,1.60
2021,01,24,13,16,1.60
2021,01,24,13,18,1.60
2021,01,24,13,20,1.60
2021,01,24,13,21,1.60
2021,01,24,13,22,1.70
2021,01,24,13,23,1.70
2021,01,24,13,24,1.70
2021,01,24,13,26,1.70
2021,01,24,13,27,1.70
2021,01,24,13,28,1.70
2021,01,24,13,29,1.70
2021,01,24,13,30,1.70
2021,01,24,13,31,1.80
2021,01,24,13,32,1.80
2021,01,24,13,33,1.80
2021,01,24,13,35,1.80
2021,01,24,13,36,1.80
2021,01,24,13,37,1.80
2021,01,24,13,38,1.80
2021,01,24,13,39,1.80
2021,01,24,13,40,1.80
2021,01,24,13,41,1.90
2021,01,24,13,42,1.90
2021,01,24,13,43,1.90
2021,01,24,13,44,1.90
2021,01,24,13,45,1.90
2021,01,24,13,46,2.00
2021,01,24,13,47,2.00
2021,01,24,13,48,2.00
2021,01,24,13,49,2.00
2021,01,24,13,50,2.10
2021,01,24,13,51,2.10
2021,01,24,13,52,2.10
2021,01,24,13,53,2.10
2021,01,24,13,54,2.10
2021,01,24,13,55,2.10
2021,01,24,13,56,2.10
2021,01,24,13,58,2.20
2021,01,24,13,59,2.20
2021,01,24,14,00,2.10
2021,01,24,14,01,2.10
2021,01,24,14,02,2.10
2021,01,24,14,03,2.10
2021,01,24,14,04,2.10
2021,01,24,14,05,2.00
2021,01,24,14,06,2.00
2021,01,24,14,07,2.00
2021,01,24,14,08,2.00
2021,01,24,14,09,1.90
2021,01,24,14,10,1.90
2021,01,24,14,11,1.90
2021,01,24,14,12,2.00
2021,01,24,14,13,2.00
2021,01,24,14,14,2.00
2021,01,24,14,15,2.00
2021,01,24,14,16,2.00
2021,01,24,14,17,2.10
2021,01,24,14,18,2.10
2021,01,24,14,19,2.10
2021,01,24,14,21,2.10
2021,01,24,14,23,2.10
2021,01,24,14,24,2.10
2021,01,24,14,25,2.10
2021,01,24,14,26,2.10
2021,01,24,14,27,2.10
2021,01,24,14,28,2.10
2021,01,24,14,29,2.10
2021,01,24,14,30,2.10
2021,01,24,14,31,2.10
2021,01,24,14,32,2.10
2021,01,24,14,33,2.10
2021,01,24,14,34,2.10
2021,01,24,14,35,2.10
2021,01,24,14,36,2.10
2021,01,24,14,37,2.10
2021,01,24,14,38,2.10
2021,01,24,14,39,2.10
2021,01,24,14,40,2.10
2021,01,24,14,41,2.10
2021,01,24,14,42,2.10
2021,01,24,14,43,2.10
2021,01,24,14,44,2.10
2021,01,24,14,45,2.10
2021,01,24,14,46,2.10
2021,01,24,14,47,2.10
2021,01,24,14,48,2.10
2021,01,24,14,49,2.10
2021,01,24,14,50,2.10
2021,01,24,14,51,2.10
2021,01,24,14,52,2.10
2021,01,24,14,53,2.10
2021,01,24,14,54,2.10
2021,01,24,14,55,2.10
2021,01,24,14,56,2.10
2021,01,24,14,57,2.10
2021,01,24,14,58,2.10
2021,01,24,14,59,2.10
2021,01,24,15,01,2.10
2021,01,24,15,02,2.10
2021,01,24,15,03,2.10
2021,01,24,15,04,2.10
2021,01,24,15,05,2.10
2021,01,24,15,06,2.10
2021,01,24,15,07,2.10
2021,01,24,15,08,2.10
2021,01,24,15,09,2.10
2021,01,24,15,10,2.10
2021,01,24,15,11,2.10
2021,01,24,15,12,2.10
2021,01,24,15,13,2.10
2021,01,24,15,14,2.10
2021,01,24,15,15,2.10
2021,01,24,15,16,2.10
2021,01,24,15,18,2.10
2021,01,24,15,19,2.10
2021,01,24,15,20,2.10
2021,01,24,15,21,2.10
2021,01,24,15,22,2.10
2021,01,24,15,23,2.10
2021,01,24,15,24,2.10
2021,01,24,15,25,2.10
2021,01,24,15,26,2.10
2021,01,24,15,27,2.20
2021,01,24,15,28,2.10
2021,01,24,15,29,2.10
2021,01,24,15,30,2.20
2021,01,24,15,31,2.20
2021,01,24,15,32,2.10
2021,01,24,15,34,2.10
2021,01,24,15,35,2.10
2021,01,24,15,36,2.10
2021,01,24,15,37,2.10
2021,01,24,15,38,2.10
2021,01,24,15,39,2.10
2021,01,24,15,40,2.10
2021,01,24,15,41,2.10
2021,01,24,15,42,2.10
2021,01,24,15,43,2.10
2021,01,24,15,44,2.10
2021,01,24,15,45,2.10
2021,01,24,15,46,2.10
2021,01,24,15,48,2.10
2021,01,24,15,49,2.10
2021,01,24,15,50,2.10
2021,01,24,15,52,2.00
2021,01,24,15,53,2.10
2021,01,24,15,54,2.10
2021,01,24,15,55,2.10
2021,01,24,15,56,2.10
2021,01,24,15,57,2.10
2021,01,24,15,59,2.10
2021,01,24,16,00,2.10
2021,01,24,16,01,2.10
2021,01,24,16,02,2.10
2021,01,24,16,04,2.10
2021,01,24,16,05,2.00
2021,01,24,16,06,2.00
2021,01,24,16,07,2.00
2021,01,24,16,08,2.00
2021,01,24,16,09,2.00
2021,01,24,16,10,2.00
2021,01,24,16,11,2.00
2021,01,24,16,12,1.90
2021,01,24,16,13,2.00
2021,01,24,16,14,1.90
2021,01,24,16,15,1.90
2021,01,24,16,16,1.90
2021,01,24,16,17,1.90
2021,01,24,16,18,1.90
2021,01,24,16,19,1.90
2021,01,24,16,21,1.90
2021,01,24,16,22,1.90
2021,01,24,16,23,1.90
2021,01,24,16,24,1.90
2021,01,24,16,25,1.90
2021,01,24,16,26,1.90
2021,01,24,16,27,1.90
2021,01,24,16,28,1.80
2021,01,24,16,30,1.80
2021,01,24,16,31,1.80
2021,01,24,16,32,1.80
2021,01,24,16,33,1.80
2021,01,24,16,34,1.80
2021,01,24,16,35,1.80
2021,01,24,16,36,1.80
2021,01,24,16,37,1.80
2021,01,24,16,39,1.70
2021,01,24,16,40,1.70
2021,01,24,16,41,1.70
2021,01,24,16,42,1.70
2021,01,24,16,43,1.70
2021,01,24,16,44,1.70
2021,01,24,16,45,1.70
2021,01,24,16,47,1.70
2021,01,24,16,48,1.70
2021,01,24,16,49,1.70
2021,01,24,16,50,1.70
2021,01,24,16,51,1.70
2021,01,24,16,52,1.70
2021,01,24,16,53,1.70
2021,01,24,16,54,1.60
2021,01,24,16,56,1.60
2021,01,24,16,57,1.60
2021,01,24,16,58,1.60
2021,01,24,16,59,1.60
2021,01,24,17,01,1.60
2021,01,24,17,02,1.60
2021,01,24,17,03,1.60
2021,01,24,17,04,1.60
2021,01,24,17,05,1.60
2021,01,24,17,06,1.60
2021,01,24,17,07,1.60
2021,01,24,17,08,1.60
2021,01,24,17,09,1.60
2021,01,24,17,11,1.60
2021,01,24,17,12,1.60
2021,01,24,17,13,1.60
2021,01,24,17,14,1.60
2021,01,24,17,15,1.60
2021,01,24,17,16,1.60
2021,01,24,17,17,1.60
2021,01,24,17,18,1.60
2021,01,24,17,20,1.50
2021,01,24,17,21,1.50
2021,01,24,17,22,1.50
2021,01,24,17,23,1.50
2021,01,24,17,24,1.50
2021,01,24,17,25,1.50
2021,01,24,17,26,1.50
2021,01,24,17,27,1.50
2021,01,24,17,28,1.50
2021,01,24,17,29,1.50
2021,01,24,17,30,1.60
2021,01,24,17,31,1.60
2021,01,24,17,32,1.60
2021,01,24,17,33,1.60
2021,01,24,17,34,1.60
2021,01,24,17,35,1.60
2021,01,24,17,36,1.60
2021,01,24,17,37,1.60
2021,01,24,17,38,1.60
2021,01,24,17,39,1.60
2021,01,24,17,41,1.60
2021,01,24,17,42,1.60
2021,01,24,17,43,1.60
2021,01,24,17,44,1.60
2021,01,24,17,45,1.60
2021,01,24,17,47,1.60
2021,01,24,17,48,1.60
2021,01,24,17,49,1.60
2021,01,24,17,50,1.60
2021,01,24,17,51,1.60
2021,01,24,17,53,1.60
2021,01,24,17,54,1.60
2021,01,24,17,55,1.60
2021,01,24,17,56,1.60
2021,01,24,17,57,1.60
2021,01,24,18,00,1.60
2021,01,24,18,02,1.60
2021,01,24,18,03,1.60
2021,01,24,18,04,1.60
2021,01,24,18,05,1.60
2021,01,24,18,06,1.60
2021,01,24,18,07,1.60
2021,01,24,18,09,1.60
2021,01,24,18,10,1.60
2021,01,24,18,11,1.60
2021,01,24,18,12,1.60
2021,01,24,18,13,1.60
2021,01,24,18,14,1.60
2021,01,24,18,17,1.50
2021,01,24,18,18,1.50
2021,01,24,18,19,1.50
2021,01,24,18,20,1.50
2021,01,24,18,21,1.50
2021,01,24,18,22,1.50
2021,01,24,18,24,1.40
2021,01,24,18,25,1.40
2021,01,24,18,26,1.40
2021,01,24,18,27,1.40
2021,01,24,18,28,1.40
2021,01,24,18,29,1.40
2021,01,24,18,30,1.40
2021,01,24,18,31,1.40
2021,01,24,18,32,1.40
2021,01,24,18,33,1.40
2021,01,24,18,34,1.40
2021,01,24,18,35,1.40
2021,01,24,18,36,1.40
2021,01,24,18,37,1.40
2021,01,24,18,38,1.40
2021,01,24,18,40,1.40
2021,01,24,18,41,1.40
2021,01,24,18,42,1.30
2021,01,24,18,43,1.30
2021,01,24,18,44,1.30
2021,01,24,18,45,1.30
2021,01,24,18,46,1.30
2021,01,24,18,47,1.30
2021,01,24,18,49,1.30
2021,01,24,18,50,1.30
2021,01,24,18,51,1.30
2021,01,24,18,52,1.30
2021,01,24,18,53,1.30
2021,01,24,18,54,1.30
2021,01,24,18,55,1.30
2021,01,24,18,56,1.30
2021,01,24,18,57,1.30
2021,01,24,18,59,1.30
2021,01,24,19,00,1.30
2021,01,24,19,01,1.30
2021,01,24,19,02,1.30
2021,01,24,19,03,1.30
2021,01,24,19,04,1.30
2021,01,24,19,05,1.30
2021,01,24,19,06,1.30
2021,01,24,19,08,1.20
2021,01,24,19,10,1.20
2021,01,24,19,11,1.20
2021,01,24,19,12,1.20
2021,01,24,19,13,1.20
2021,01,24,19,16,1.30
2021,01,24,19,17,1.30
2021,01,24,19,18,1.30
2021,01,24,19,19,1.30
2021,01,24,19,20,1.30
2021,01,24,19,22,1.30
2021,01,24,19,23,1.30
2021,01,24,19,24,1.30
2021,01,24,19,25,1.30
2021,01,24,19,26,1.30
2021,01,24,19,27,1.30
2021,01,24,19,28,1.40
2021,01,24,19,29,1.40
2021,01,24,19,30,1.40
2021,01,24,19,31,1.40
2021,01,24,19,32,1.40
2021,01,24,19,33,1.40
2021,01,24,19,34,1.40
2021,01,24,19,35,1.40
2021,01,24,19,36,1.40
2021,01,24,19,37,1.40
2021,01,24,19,38,1.30
2021,01,24,19,40,1.30
2021,01,24,19,41,1.30
2021,01,24,19,42,1.30
2021,01,24,19,43,1.30
2021,01,24,19,44,1.30
2021,01,24,19,45,1.30
2021,01,24,19,46,1.30
2021,01,24,19,48,1.30
2021,01,24,19,50,1.30
2021,01,24,19,51,1.30
2021,01,24,19,52,1.30
2021,01,24,19,53,1.30
2021,01,24,19,54,1.30
2021,01,24,19,56,1.30
2021,01,24,19,58,1.30
2021,01,24,19,59,1.30
2021,01,24,20,00,1.30
2021,01,24,20,01,1.30
2021,01,24,20,02,1.30
2021,01,24,20,03,1.30
2021,01,24,20,04,1.30
2021,01,24,20,05,1.30
2021,01,24,20,06,1.30
2021,01,24,20,07,1.30
2021,01,24,20,08,1.30
2021,01,24,20,09,1.30
2021,01,24,20,10,1.30
2021,01,24,20,11,1.30
2021,01,24,20,12,1.30
2021,01,24,20,13,1.30
2021,01,24,20,14,1.30
2021,01,24,20,15,1.30
2021,01,24,20,16,1.30
2021,01,24,20,17,1.30
2021,01,24,20,18,1.30
2021,01,24,20,19,1.30
2021,01,24,20,21,1.20
2021,01,24,20,22,1.20
2021,01,24,20,23,1.20
2021,01,24,20,24,1.20
2021,01,24,20,25,1.20
2021,01,24,20,26,1.20
2021,01,24,20,27,1.20
2021,01,24,20,28,1.20
2021,01,24,20,30,1.20
2021,01,24,20,31,1.20
2021,01,24,20,32,1.20
2021,01,24,20,33,1.20
2021,01,24,20,34,1.20
2021,01,24,20,36,1.20
2021,01,24,20,37,1.20
2021,01,24,20,38,1.20
2021,01,24,20,39,1.20
2021,01,24,20,40,1.20
2021,01,24,20,41,1.20
2021,01,24,20,42,1.20
2021,01,24,20,43,1.20
2021,01,24,20,45,1.20
2021,01,24,20,46,1.20
2021,01,24,20,47,1.20
2021,01,24,20,48,1.20
2021,01,24,20,49,1.20
2021,01,24,20,50,1.20
2021,01,24,20,51,1.20
2021,01,24,20,52,1.20
2021,01,24,20,53,1.20
2021,01,24,20,54,1.20
2021,01,24,20,55,1.20
2021,01,24,20,56,1.20
2021,01,24,20,57,1.20
2021,01,24,20,58,1.20
2021,01,24,21,00,1.20
2021,01,24,21,02,1.20
2021,01,24,21,03,1.20
2021,01,24,21,04,1.30
2021,01,24,21,05,1.30
2021,01,24,21,06,1.30
2021,01,24,21,07,1.30
2021,01,24,21,08,1.30
2021,01,24,21,09,1.30
2021,01,24,21,10,1.30
2021,01,24,21,11,1.30
2021,01,24,21,12,1.30
2021,01,24,21,13,1.30
2021,01,24,21,15,1.30
2021,01,24,21,16,1.30
2021,01,24,21,18,1.30
2021,01,24,21,19,1.30
2021,01,24,21,20,1.30
2021,01,24,21,21,1.30
2021,01,24,21,22,1.30
2021,01,24,21,23,1.30
2021,01,24,21,24,1.30
2021,01,24,21,25,1.30
2021,01,24,21,26,1.30
2021,01,24,21,27,1.30
2021,01,24,21,28,1.30
2021,01,24,21,29,1.30
2021,01,24,21,30,1.30
2021,01,24,21,31,1.30
2021,01,24,21,32,1.30
2021,01,24,21,33,1.30
2021,01,24,21,35,1.30
2021,01,24,21,36,1.30
2021,01,24,21,37,1.30
2021,01,24,21,38,1.30
2021,01,24,21,39,1.30
2021,01,24,21,40,1.30
2021,01,24,21,41,1.30
2021,01,24,21,42,1.30
2021,01,24,21,43,1.30
2021,01,24,21,44,1.30
2021,01,24,21,45,1.30
2021,01,24,21,46,1.30
2021,01,24,21,47,1.30
2021,01,24,21,48,1.30
2021,01,24,21,49,1.30
2021,01,24,21,50,1.30
2021,01,24,21,51,1.30
2021,01,24,21,52,1.30
2021,01,24,21,53,1.30
2021,01,24,21,54,1.30
2021,01,24,21,55,1.30
2021,01,24,21,56,1.30
2021,01,24,21,57,1.30
2021,01,24,21,58,1.30
2021,01,24,21,59,1.30
2021,01,24,22,00,1.30
2021,01,24,22,01,1.30
2021,01,24,22,04,1.30
2021,01,24,22,05,1.30
2021,01,24,22,06,1.30
2021,01,24,22,07,1.40
2021,01,24,22,08,1.40
2021,01,24,22,09,1.40
2021,01,24,22,10,1.40
2021,01,24,22,11,1.40
2021,01,24,22,12,1.40
2021,01,24,22,13,1.30
2021,01,24,22,14,1.30
2021,01,24,22,15,1.30
2021,01,24,22,16,1.30
2021,01,24,22,17,1.30
2021,01,24,22,18,1.30
2021,01,24,22,19,1.30
2021,01,24,22,21,1.30
2021,01,24,22,22,1.30
2021,01,24,22,23,1.30
2021,01,24,22,24,1.30
2021,01,24,22,25,1.30
2021,01,24,22,26,1.30
2021,01,24,22,27,1.30
2021,01,24,22,28,1.40
2021,01,24,22,29,1.40
2021,01,24,22,30,1.40
2021,01,24,22,31,1.40
2021,01,24,22,32,1.40
2021,01,24,22,33,1.40
2021,01,24,22,34,1.30
2021,01,24,22,35,1.40
2021,01,24,22,36,1.40
2021,01,24,22,37,1.40